Wind_Speed
105 104 117 118 117 113 112 112 115 112 115 119 126 125 134 127 123 115 106 100 93 88 85 85 82 81 81 78 77 74 69 63 55 47 45 43 38 32
126 124 124 120 117 113 113 115 119 126 129 131 132 133 128 119 110 104 100 95 93 88 85 86 86 81 79 76 71 70 64 59 48 43 42 40 37 31
128 126 122 123 116 116 125 132 132 138 139 133 135 131 121 112 107 101 97 96 92 91 90 88 84 80 77 73 67 64 58 53 45 42 39 39 34 31
126 121 125 129 132 138 143 144 139 138 140 144 128 122 115 107 102 98 95 94 94 92 88 83 79 76 72 67 61 58 51 48 43 41 40 39 35 30
131 139 143 145 145 144 144 144 145 143 136 131 125 116 109 103 100 97 97 95 91 87 79 76 73 69 65 60 58 53 48 46 42 39 40 37 36 35
145 146 147 150 152 148 143 138 134 129 126 121 114 109 104 101 99 96 91 86 80 76 74 71 67 63 59 56 54 47 45 43 39 38 39 37 37 35
152 155 148 143 140 136 132 127 123 120 117 115 108 105 103 97 90 85 81 77 73 70 68 64 61 58 54 52 49 43 42 42 39 40 40 38 36 36
143 140 136 132 128 126 124 122 120 114 109 106 103 96 92 89 84 77 73 68 66 64 63 60 56 54 51 48 44 42 42 40 39 42 42 40 40 41
134 131 128 126 125 122 118 113 110 105 99 95 92 87 84 83 77 74 71 65 60 58 56 53 52 50 46 44 43 42 42 42 39 43 45 45 44 43
125 122 118 115 112 110 106 102 99 95 93 89 84 79 76 74 69 65 62 59 56 54 52 51 50 48 45 43 43 42 42 40 41 44 46 46 44 46
108 105 104 102 100 100 97 93 91 85 80 73 68 64 62 61 60 58 55 53 51 50 50 48 47 45 44 44 44 43 43 43 44 46 47 46 45 44
97 96 95 94 92 90 87 83 78 72 66 60 57 54 52 51 50 49 49 49 48 47 47 47 44 45 43 43 46 44 45 45 47 49 51 50 50 52
88 85 82 81 80 77 72 68 63 58 55 51 48 46 45 43 43 42 43 45 45 45 46 47 46 46 48 47 46 48 49 49 48 50 51 53 57 59
75 72 69 67 65 63 60 57 54 52 49 47 45 43 41 39 38 38 39 39 40 42 43 44 44 43 43 45 47 47 47 48 51 51 54 55 57 58
61 60 59 59 58 57 53 51 50 48 45 43 42 42 41 39 38 37 36 37 37 38 39 39 39 40 42 44 44 48 50 52 54 56 58 58 58 58
54 54 53 53 54 52 50 47 45 44 43 41 39 37 37 36 35 36 37 37 38 40 41 42 43 46 47 48 50 53 56 58 59 61 62 61 60 57
52 51 50 51 50 49 49 49 48 46 42 41 39 37 37 36 36 37 37 37 38 40 40 43 47 50 52 53 55 57 60 61 62 61 61 61 59 61
51 50 49 48 48 48 48 48 47 44 42 41 40 40 39 39 39 40 41 41 41 42 42 43 45 48 51 53 55 55 55 55 57 60 63 65 63 62
51 49 48 47 48 48 47 46 45 44 42 42 42 42 43 44 45 45 45 46 44 43 45 47 49 50 54 56 57 60 59 58 60 62 63 66 68 66
50 49 47 46 46 45 46 46 45 44 44 43 43 42 44 45 44 43 43 46 48 49 50 50 51 53 56 58 61 64 63 63 65 66 67 70 73 74
49 48 47 46 46 47 47 47 47 46 45 45 44 44 44 44 46 47 48 50 52 55 58 61 62 64 65 67 70 72 73 73 74 74 75 76 78 80
50 49 49 48 47 46 47 47 47 46 44 44 43 45 46 47 48 49 51 56 60 62 64 64 64 65 67 68 70 71 73 74 73 74 75 75 76 76
50 50 51 50 49 48 47 47 47 47 47 47 48 48 49 50 52 55 56 59 61 63 64 65 64 66 65 64 64 64 64 65 64 64 65 66 68 71
Wind_Direction
285 284 286 288 289 289 288 289 292 289 292 293 298 298 302 300 302 301 301 302 302 302 302 301 303 303 304 306 307 308 309 307 307 309 309 310 310 304
283 283 285 285 288 286 285 287 289 292 294 295 298 299 299 299 300 299 299 299 300 301 300 300 302 302 302 303 304 303 304 305 303 304 305 306 309 304
280 281 284 286 285 286 286 289 290 290 293 293 295 296 297 296 298 298 297 297 298 298 299 298 299 300 300 300 300 299 300 301 300 299 301 303 307 302
281 283 283 283 282 284 285 288 288 289 292 293 295 294 295 294 295 295 295 297 297 297 297 297 297 296 297 298 297 296 295 295 294 292 298 303 306 298
276 277 280 282 284 285 286 290 289 290 292 293 293 292 292 293 294 295 295 296 294 295 295 293 292 293 292 293 292 290 288 289 287 286 293 300 305 299
276 278 281 281 282 284 287 288 288 289 289 291 291 292 292 294 294 294 293 292 292 291 290 290 291 290 289 287 287 285 284 282 280 281 287 296 304 297
276 279 280 281 282 282 284 286 287 289 289 290 291 293 293 293 292 290 289 288 288 289 289 289 286 287 285 284 282 279 278 275 276 278 282 291 298 301
276 278 280 282 284 284 285 287 288 289 289 288 290 290 288 288 288 287 287 286 285 286 285 284 285 282 280 279 275 269 274 272 274 275 280 289 297 303
276 278 280 281 283 284 286 286 287 288 288 288 288 288 286 287 286 285 285 286 283 281 281 281 280 279 278 274 273 268 269 270 271 274 277 285 292 298
276 278 279 281 282 283 285 286 287 288 288 288 287 286 284 283 282 283 280 281 281 279 278 276 276 275 272 268 265 266 268 266 268 271 275 283 288 295
276 278 280 281 282 283 287 288 289 290 290 288 287 285 282 280 279 279 279 278 277 277 275 275 273 272 267 264 263 266 267 266 268 271 276 281 286 292
279 279 281 283 285 285 287 289 290 290 290 288 287 285 283 280 278 277 275 274 274 274 274 273 269 268 268 261 266 264 262 264 268 271 277 280 285 291
280 281 282 282 284 285 287 288 289 289 290 289 287 285 283 280 279 277 273 272 272 272 272 270 268 265 266 265 260 260 262 268 273 276 279 280 285 288
279 280 280 281 282 284 286 287 287 288 289 288 287 286 285 283 281 278 276 274 271 269 269 270 269 270 268 268 267 271 271 273 275 278 283 282 283 283
279 279 280 280 280 281 282 283 285 286 285 284 282 281 281 279 276 275 272 271 272 271 269 268 270 270 271 268 270 273 273 275 276 278 280 283 283 281
277 278 278 278 278 279 279 280 280 281 282 283 281 280 280 279 278 276 276 276 276 276 273 273 272 272 270 269 270 272 273 274 277 279 281 280 280 282
274 275 276 276 277 276 277 277 277 277 277 277 278 278 276 274 273 273 274 273 274 275 275 275 274 272 272 272 272 273 273 274 277 279 279 279 281 282
272 274 275 276 276 275 275 275 276 276 277 275 274 272 272 273 276 279 279 278 280 279 278 278 277 276 275 274 274 275 274 273 274 276 278 280 281 280
273 274 274 274 274 274 273 273 274 275 274 273 272 273 275 276 276 278 279 280 281 281 279 278 278 278 277 278 277 277 277 277 276 276 277 278 279 279
272 272 271 272 273 273 272 273 273 274 275 275 274 275 277 279 280 281 283 285 285 285 283 282 281 279 277 277 277 276 275 274 275 275 276 278 278 280
270 269 268 268 268 270 272 273 275 275 275 276 276 276 277 280 283 285 286 287 288 287 286 285 285 284 282 280 278 278 278 277 276 275 276 276 277 279
268 268 268 267 265 266 269 271 274 275 275 276 277 279 281 282 284 285 285 285 286 287 287 288 287 286 284 283 281 281 280 278 277 276 275 276 276 278
267 268 269 269 268 267 268 270 273 275 276 277 279 280 282 283 284 288 288 288 288 290 291 291 290 289 288 286 287 286 285 283 282 280 278 278 277 276
Height
10656 10656 10654 10650 10647 10646 10644 10642 10640 10638 10635 10631 10625 10619 10611 10603 10598 10592 10585 10579 10573 10569 10562 10555 10550 10545 10539 10533 10527 10522 10516 10511 10507 10502 10499 10496 10493 10489
10642 10637 10635 10633 10630 10628 10625 10621 10619 10618 10615 10610 10604 10598 10591 10585 10578 10572 10565 10560 10555 10549 10543 10537 10533 10528 10523 10517 10513 10507 10503 10498 10494 10490 10488 10485 10482 10480
10621 10617 10613 10609 10605 10604 10604 10600 10596 10595 10594 10588 10584 10577 10570 10563 10557 10551 10543 10538 10533 10528 10523 10518 10514 10510 10505 10501 10498 10493 10490 10486 10482 10479 10478 10476 10473 10471
10598 10591 10589 10588 10586 10583 10580 10579 10571 10568 10566 10566 10555 10552 10546 10540 10534 10528 10523 10517 10511 10506 10502 10498 10495 10492 10488 10484 10482 10479 10476 10474 10472 10469 10467 10465 10463 10461
10576 10574 10570 10564 10561 10559 10557 10553 10546 10541 10538 10534 10531 10527 10521 10516 10510 10505 10500 10494 10489 10484 10481 10479 10476 10474 10470 10468 10466 10464 10462 10462 10460 10458 10457 10455 10452 10451
10552 10548 10543 10542 10539 10534 10530 10526 10521 10517 10512 10508 10505 10500 10496 10491 10485 10480 10476 10471 10468 10464 10461 10459 10457 10456 10453 10451 10451 10449 10448 10449 10448 10447 10446 10445 10442 10440
10525 10523 10519 10516 10514 10508 10505 10500 10497 10493 10488 10484 10478 10473 10468 10465 10461 10457 10454 10451 10447 10444 10441 10440 10438 10438 10437 10435 10435 10434 10435 10435 10435 10435 10434 10434 10434 10431
10499 10497 10494 10491 10486 10482 10478 10475 10471 10466 10462 10459 10453 10449 10442 10439 10436 10434 10432 10430 10428 10425 10424 10422 10421 10421 10420 10419 10419 10420 10421 10423 10422 10421 10422 10422 10420 10419
10477 10475 10472 10468 10462 10457 10453 10449 10445 10440 10435 10432 10428 10424 10419 10417 10414 10412 10411 10410 10409 10407 10406 10405 10405 10404 10404 10405 10405 10407 10408 10410 10410 10410 10409 10408 10408 10407
10456 10454 10449 10444 10439 10433 10428 10424 10419 10414 10409 10405 10401 10399 10396 10394 10392 10391 10390 10390 10390 10389 10388 10388 10389 10389 10389 10390 10391 10393 10394 10396 10397 10397 10397 10396 10394 10392
10434 10430 10425 10420 10414 10408 10404 10399 10394 10390 10385 10381 10379 10377 10375 10373 10373 10373 10373 10373 10372 10372 10373 10373 10374 10375 10375 10376 10377 10378 10380 10381 10381 10382 10381 10381 10380 10378
10410 10407 10402 10396 10390 10385 10381 10377 10373 10369 10365 10363 10360 10359 10358 10357 10356 10356 10357 10357 10358 10358 10358 10359 10360 10360 10361 10362 10363 10364 10365 10365 10366 10366 10366 10365 10364 10362
10387 10383 10379 10374 10370 10367 10363 10359 10356 10352 10349 10346 10345 10344 10343 10342 10342 10342 10342 10342 10343 10344 10345 10345 10345 10346 10347 10347 10348 10348 10349 10350 10351 10351 10350 10349 10347 10345
10364 10362 10359 10355 10353 10350 10348 10344 10341 10339 10336 10333 10331 10330 10329 10329 10329 10328 10329 10329 10330 10331 10332 10332 10332 10332 10334 10335 10335 10337 10337 10336 10335 10334 10333 10332 10330 10327
10346 10344 10342 10340 10337 10335 10334 10331 10328 10325 10324 10322 10320 10319 10318 10318 10317 10316 10316 10317 10317 10317 10317 10318 10318 10319 10321 10321 10322 10323 10322 10320 10319 10317 10315 10314 10312 10309
10329 10328 10328 10325 10323 10322 10320 10318 10316 10314 10312 10310 10309 10308 10307 10306 10305 10304 10304 10305 10305 10304 10304 10304 10305 10305 10306 10306 10306 10306 10304 10302 10301 10299 10296 10295 10293 10292
10314 10314 10313 10311 10310 10308 10306 10305 10303 10302 10301 10298 10298 10297 10295 10295 10294 10293 10293 10292 10292 10291 10291 10290 10290 10290 10289 10288 10287 10289 10286 10284 10283 10280 10276 10274 10275 10272
10298 10299 10298 10297 10296 10294 10293 10291 10290 10289 10288 10287 10287 10285 10284 10283 10283 10282 10281 10280 10280 10279 10278 10276 10276 10275 10273 10271 10269 10268 10268 10268 10266 10263 10259 10254 10253 10253
10282 10284 10283 10283 10281 10280 10279 10278 10278 10277 10276 10275 10274 10273 10272 10271 10270 10269 10267 10266 10265 10264 10263 10262 10260 10259 10256 10252 10252 10248 10248 10250 10246 10243 10240 10236 10230 10231
10267 10268 10268 10268 10267 10266 10265 10265 10265 10264 10262 10261 10260 10260 10259 10257 10256 10255 10254 10251 10249 10248 10247 10246 10245 10242 10237 10234 10230 10227 10228 10227 10225 10222 10220 10215 10209 10206
10251 10252 10253 10253 10252 10251 10251 10251 10250 10250 10249 10248 10248 10247 10246 10244 10242 10241 10238 10236 10233 10231 10228 10226 10225 10220 10217 10213 10208 10203 10201 10202 10200 10198 10196 10193 10188 10181
10235 10236 10237 10238 10239 10238 10238 10237 10236 10236 10235 10234 10234 10233 10232 10230 10228 10227 10224 10220 10217 10212 10208 10205 10202 10198 10192 10189 10184 10181 10176 10173 10174 10173 10170 10168 10164 10158
10218 10219 10221 10222 10223 10223 10223 10222 10221 10221 10221 10220 10219 10218 10217 10215 10212 10209 10206 10202 10197 10193 10189 10184 10179 10174 10170 10164 10160 10155 10152 10149 10147 10146 10143 10143 10140 10135